TimeCDT,TemperatureF,Dew PointF,Humidity,Sea Level PressureIn,VisibilityMPH,Wind Direction,Wind SpeedMPH,Gust SpeedMPH,PrecipitationIn,Events,Conditions,WindDirDegrees,DateUTC
12:15 AM,67.3,65.5,94,29.93,10.0,South,4.6,-,N/A,,Clear,170,2013-10-04 05:15:00
12:35 AM,67.3,65.5,94,29.93,10.0,South,6.9,-,N/A,,Clear,170,2013-10-04 05:35:00
12:55 AM,68.0,65.8,93,29.93,7.0,South,8.1,-,N/A,,Clear,170,2013-10-04 05:55:00
1:15 AM,68.0,66.0,93,29.93,7.0,South,5.8,-,N/A,,Clear,170,2013-10-04 06:15:00
1:35 AM,68.4,66.4,93,29.93,7.0,South,6.9,-,N/A,,Clear,180,2013-10-04 06:35:00
1:55 AM,68.5,66.7,94,29.94,7.0,South,6.9,-,N/A,,Clear,180,2013-10-04 06:55:00
2:15 AM,68.9,67.1,94,29.93,7.0,South,6.9,-,N/A,,Clear,170,2013-10-04 07:15:00
2:35 AM,69.3,67.6,95,29.93,5.0,South,5.8,-,N/A,,Clear,180,2013-10-04 07:35:00
2:55 AM,69.4,68.0,95,29.93,5.0,South,6.9,-,N/A,,Clear,180,2013-10-04 07:55:00
3:15 AM,70.0,68.4,95,29.93,5.0,South,8.1,-,N/A,,Clear,180,2013-10-04 08:15:00
3:35 AM,71.1,69.1,93,29.92,7.0,South,8.1,-,N/A,,Clear,190,2013-10-04 08:35:00
3:55 AM,71.1,69.1,93,29.92,7.0,South,9.2,-,N/A,,Clear,190,2013-10-04 08:55:00
4:15 AM,70.7,68.9,94,29.92,5.0,South,8.1,-,N/A,,Clear,190,2013-10-04 09:15:00
4:35 AM,70.7,68.9,94,29.93,5.0,South,6.9,-,N/A,,Clear,190,2013-10-04 09:35:00
4:55 AM,70.7,68.9,94,29.93,5.0,South,6.9,-,N/A,,Clear,180,2013-10-04 09:55:00
5:15 AM,70.2,68.7,95,29.93,5.0,South,6.9,-,N/A,,Scattered Clouds,180,2013-10-04 10:15:00
5:35 AM,70.2,68.9,96,29.93,4.0,South,6.9,-,N/A,,Scattered Clouds,180,2013-10-04 10:35:00
5:55 AM,70.0,68.5,95,29.93,4.0,South,5.8,-,N/A,,Scattered Clouds,180,2013-10-04 10:55:00
6:15 AM,69.8,68.4,95,29.94,4.0,South,4.6,-,N/A,,Scattered Clouds,180,2013-10-04 11:15:00
6:35 AM,70.0,68.5,95,29.94,4.0,South,4.6,-,N/A,,Mostly Cloudy,190,2013-10-04 11:35:00
6:55 AM,69.8,68.4,95,29.94,3.0,South,3.5,-,N/A,,Overcast,170,2013-10-04 11:55:00
7:35 AM,69.8,68.7,96,29.94,2.0,South,6.9,-,N/A,,Overcast,180,2013-10-04 12:35:00
7:55 AM,70.3,69.3,96,29.95,2.5,South,5.8,-,N/A,,Mostly Cloudy,170,2013-10-04 12:55:00
8:15 AM,71.2,69.8,95,29.95,3.0,South,5.8,-,N/A,,Overcast,180,2013-10-04 13:15:00
8:35 AM,72.5,70.7,94,29.95,4.0,South,8.1,-,N/A,,Overcast,180,2013-10-04 13:35:00
8:55 AM,73.6,70.9,91,29.96,5.0,South,6.9,-,N/A,,Mostly Cloudy,190,2013-10-04 13:55:00
9:15 AM,75.0,70.9,87,29.96,7.0,South,10.4,-,N/A,,Mostly Cloudy,190,2013-10-04 14:15:00
9:35 AM,75.2,70.9,86,29.96,10.0,South,5.8,-,N/A,,Mostly Cloudy,190,2013-10-04 14:35:00
9:55 AM,77.4,71.4,82,29.96,10.0,South,9.2,-,N/A,,Overcast,190,2013-10-04 14:55:00
10:15 AM,77.0,71.1,82,29.96,10.0,South,8.1,-,N/A,,Overcast,190,2013-10-04 15:15:00
10:35 AM,78.8,71.2,78,29.96,10.0,SW,8.1,-,N/A,,Mostly Cloudy,220,2013-10-04 15:35:00
10:55 AM,80.1,71.1,74,29.96,10.0,South,8.1,-,N/A,,Mostly Cloudy,190,2013-10-04 15:55:00
11:15 AM,81.3,70.9,70,29.96,10.0,SSW,5.8,-,N/A,,Overcast,200,2013-10-04 16:15:00
11:35 AM,82.9,70.3,66,29.96,10.0,SSW,9.2,-,N/A,,Mostly Cloudy,200,2013-10-04 16:35:00
11:55 AM,84.0,70.2,63,29.97,10.0,SW,6.9,-,N/A,,Scattered Clouds,220,2013-10-04 16:55:00
12:15 PM,83.8,69.8,63,29.97,10.0,South,5.8,-,N/A,,Scattered Clouds,190,2013-10-04 17:15:00
12:35 PM,84.0,69.8,62,29.97,10.0,WSW,4.6,-,N/A,,Scattered Clouds,240,2013-10-04 17:35:00
12:55 PM,85.3,69.6,59,29.96,10.0,SSE,4.6,-,N/A,,Clear,160,2013-10-04 17:55:00
1:15 PM,86.2,69.1,57,29.95,10.0,SSE,8.1,-,N/A,,Clear,150,2013-10-04 18:15:00
1:35 PM,86.4,68.2,54,29.93,10.0,South,9.2,-,N/A,,Clear,180,2013-10-04 18:35:00
1:55 PM,88.5,66.9,49,29.92,10.0,South,9.2,-,N/A,,Clear,170,2013-10-04 18:55:00
2:15 PM,88.7,65.8,47,29.91,10.0,South,9.2,16.1,N/A,,Clear,170,2013-10-04 19:15:00
2:35 PM,88.2,66.6,49,29.90,10.0,SSE,10.4,-,N/A,,Clear,160,2013-10-04 19:35:00
2:55 PM,88.7,66.7,48,29.90,10.0,SSE,9.2,-,N/A,,Clear,150,2013-10-04 19:55:00
3:15 PM,88.9,65.8,46,29.89,10.0,South,13.8,-,N/A,,Clear,180,2013-10-04 20:15:00
3:35 PM,89.1,65.5,45,29.89,10.0,South,10.4,18.4,N/A,,Clear,170,2013-10-04 20:35:00
3:55 PM,88.3,66.2,48,29.89,10.0,SSE,10.4,-,N/A,,Scattered Clouds,150,2013-10-04 20:55:00
4:15 PM,87.3,66.0,49,29.90,10.0,SSE,8.1,-,N/A,,Scattered Clouds,160,2013-10-04 21:15:00
4:35 PM,87.3,64.9,47,29.90,10.0,South,8.1,-,N/A,,Scattered Clouds,170,2013-10-04 21:35:00
4:55 PM,87.4,63.3,44,29.90,10.0,SSE,9.2,-,N/A,,Clear,160,2013-10-04 21:55:00
5:15 PM,86.5,64.8,48,29.90,10.0,SSE,8.1,-,N/A,,Clear,160,2013-10-04 22:15:00
5:35 PM,86.2,64.8,49,29.90,10.0,SSE,6.9,-,N/A,,Clear,150,2013-10-04 22:35:00
5:55 PM,85.5,63.9,48,29.90,10.0,SSE,8.1,-,N/A,,Clear,160,2013-10-04 22:55:00
6:15 PM,84.0,63.5,50,29.90,10.0,South,5.8,-,N/A,,Clear,170,2013-10-04 23:15:00
6:35 PM,82.2,63.9,54,29.90,10.0,SSE,4.6,-,N/A,,Clear,160,2013-10-04 23:35:00
6:55 PM,79.3,64.4,60,29.90,10.0,SSE,3.5,-,N/A,,Clear,150,2013-10-04 23:55:00
7:15 PM,77.0,64.9,66,29.90,10.0,SE,4.6,-,N/A,,Clear,140,2013-10-05 00:15:00
7:35 PM,76.6,65.3,68,29.90,10.0,SE,5.8,-,N/A,,Clear,140,2013-10-05 00:35:00
7:55 PM,77.0,65.8,68,29.91,10.0,SSE,5.8,-,N/A,,Clear,150,2013-10-05 00:55:00
8:15 PM,77.0,66.2,69,29.92,10.0,SE,5.8,-,N/A,,Clear,140,2013-10-05 01:15:00
8:35 PM,76.3,66.6,72,29.92,10.0,SSE,6.9,-,N/A,,Clear,150,2013-10-05 01:35:00
8:55 PM,77.0,66.7,70,29.92,10.0,SSE,6.9,-,N/A,,Clear,160,2013-10-05 01:55:00
9:15 PM,77.0,66.7,70,29.92,10.0,South,8.1,-,N/A,,Clear,170,2013-10-05 02:15:00
9:35 PM,77.2,66.7,70,29.92,10.0,South,8.1,-,N/A,,Clear,170,2013-10-05 02:35:00
9:55 PM,76.3,66.9,73,29.92,10.0,SSE,8.1,-,N/A,,Clear,160,2013-10-05 02:55:00
10:15 PM,75.4,67.1,75,29.92,10.0,South,6.9,-,N/A,,Clear,170,2013-10-05 03:15:00
10:35 PM,74.8,67.1,77,29.92,10.0,SSE,6.9,-,N/A,,Clear,160,2013-10-05 03:35:00
10:55 PM,74.3,67.1,78,29.92,10.0,South,4.6,-,N/A,,Clear,170,2013-10-05 03:55:00
11:15 PM,74.3,67.3,79,29.92,10.0,South,5.8,-,N/A,,Scattered Clouds,170,2013-10-05 04:15:00
11:35 PM,73.8,67.3,80,29.92,10.0,South,5.8,-,N/A,,Scattered Clouds,170,2013-10-05 04:35:00
11:55 PM,73.8,67.6,81,29.93,10.0,South,4.6,-,N/A,,Scattered Clouds,170,2013-10-05 04:55:00